EHI
25 28 27 20 11 4 1 0 0 0 0 0 0 0 0 0 0 0 0 1 1 1 0 0 0 1 1 1 1 3 4 2 1 0 0 0 0 0 0 0 1 1 1 2 1 0 0 0 0
22 22 20 15 8 2 0 0 0 0 0 0 0 0 0 0 0 0 0 0 0 0 0 1 1 1 1 1 1 2 2 1 0 0 0 0 0 0 0 0 2 3 2 2 1 1 0 0 0
19 16 11 8 4 1 0 0 0 0 0 0 0 0 0 0 0 0 0 0 0 0 1 2 2 1 1 1 1 1 1 0 0 0 0 0 0 0 0 0 2 3 3 3 2 2 1 0 0
18 14 7 3 1 0 0 0 0 0 0 0 0 0 0 1 1 1 1 0 0 0 1 2 2 1 0 0 0 0 0 0 0 1 1 1 0 0 0 0 2 3 3 3 2 2 2 1 0
18 12 4 1 0 0 0 0 0 0 0 0 0 0 0 1 2 2 1 1 0 0 0 1 1 1 1 1 0 0 0 0 0 1 1 1 0 0 0 0 1 2 2 2 1 1 2 2 1
15 8 2 0 0 0 0 0 0 0 0 0 0 0 0 1 2 1 1 2 1 0 0 0 1 2 2 2 1 0 0 0 0 1 1 0 0 0 0 0 0 1 1 1 0 0 1 1 1
8 4 0 0 0 0 0 0 0 0 0 0 0 0 0 0 0 0 1 2 1 0 0 0 1 1 2 2 1 0 0 0 0 0 0 0 0 0 0 0 0 0 0 0 0 0 0 0 1
2 1 0 0 0 0 0 0 0 0 0 0 0 0 0 0 0 0 0 1 1 0 0 0 0 0 1 1 0 0 0 0 0 0 0 0 0 0 0 0 0 0 0 0 0 0 0 1 2
0 0 0 0 0 0 0 0 0 0 0 0 0 1 1 1 0 0 0 0 0 0 0 0 0 0 0 0 0 0 0 0 0 0 0 0 0 0 0 0 0 0 0 0 0 0 0 1 2
0 0 0 0 0 0 0 0 0 0 0 0 0 1 1 1 0 0 0 0 0 0 0 0 0 0 0 0 0 0 0 0 0 0 0 0 0 0 0 0 0 0 0 0 0 0 0 0 1
0 0 0 0 0 0 0 0 0 0 0 0 0 0 0 0 0 0 0 0 0 0 0 0 0 0 0 0 0 0 0 0 0 0 0 0 0 0 0 0 0 0 0 0 0 0 0 0 0
0 0 0 0 0 0 0 0 0 0 0 0 0 0 0 0 0 0 0 0 0 0 0 0 0 0 0 0 0 0 0 0 0 0 0 0 0 0 0 0 0 0 0 0 0 0 0 0 0
0 0 0 0 0 0 0 0 0 0 0 0 0 0 0 0 0 0 0 0 0 0 0 0 0 0 0 0 0 0 0 0 0 0 0 0 0 0 0 0 0 0 0 0 0 0 0 0 0
0 0 0 0 0 0 0 0 0 0 0 0 0 0 0 0 0 0 0 0 0 0 0 0 0 0 0 0 0 0 0 0 0 0 0 0 0 0 0 0 0 0 0 0 0 0 0 0 0
0 0 0 0 0 0 0 0 0 0 0 0 0 0 0 0 0 0 0 0 0 0 0 0 0 0 0 0 0 0 0 0 0 0 0 0 0 0 0 0 0 0 0 0 0 0 0 0 0
0 0 0 0 0 0 0 0 0 0 0 0 0 0 0 0 0 0 0 0 0 0 0 0 0 0 0 0 0 0 0 0 0 0 0 0 0 0 0 0 0 0 0 0 0 0 0 0 0
0 0 0 0 0 0 0 1 1 1 0 0 0 0 0 1 1 0 0 0 0 0 0 0 0 0 0 0 0 0 0 0 0 0 0 0 0 0 0 0 0 0 0 0 0 0 0 0 0
0 0 0 0 0 0 0 1 2 2 1 0 0 0 0 1 1 1 1 0 0 0 0 0 0 0 0 0 0 0 0 0 0 0 0 0 0 0 0 0 0 0 0 0 0 0 0 0 0
0 0 0 0 0 0 0 0 1 1 1 0 0 0 0 0 1 2 2 1 0 0 0 0 0 0 0 0 0 0 0 0 0 0 0 0 0 0 0 0 0 0 0 0 0 0 0 0 0
0 0 0 0 0 0 0 0 0 0 0 0 0 0 0 0 1 4 3 2 0 0 0 0 0 0 0 0 0 0 0 0 0 0 0 0 0 0 0 0 0 0 0 0 0 0 0 0 0
0 0 0 0 0 0 0 0 0 1 1 0 0 0 0 0 1 4 3 2 0 0 0 0 0 0 0 0 0 0 0 0 0 0 0 0 0 0 0 0 0 0 0 0 0 0 0 0 0
0 0 0 0 0 0 0 0 1 2 1 0 0 0 0 0 1 3 3 2 1 0 0 0 0 0 0 0 0 0 0 0 0 0 0 0 0 0 0 0 0 0 0 0 0 0 0 0 0
0 0 0 0 0 0 0 0 1 1 1 0 0 0 0 0 0 2 3 2 1 0 0 0 1 1 1 0 0 0 0 0 0 0 0 0 0 0 0 0 0 0 0 0 0 0 0 0 0
0 0 0 0 0 0 0 0 0 0 0 0 0 0 0 0 0 1 2 1 0 0 0 0 1 2 2 1 0 0 0 0 0 0 0 0 0 0 0 0 0 0 0 0 0 0 0 0 0
0 0 0 0 0 0 0 0 0 0 0 0 0 0 0 0 0 0 0 0 1 1 1 1 1 2 2 1 0 0 0 0 0 0 0 0 0 0 0 0 0 0 0 0 0 0 0 0 0
0 0 0 0 0 0 0 0 0 0 0 0 0 0 0 0 0 0 1 1 1 2 2 1 1 1 2 1 0 0 0 0 0 0 0 0 0 0 0 0 0 0 0 0 0 0 0 0 0
0 0 0 0 0 0 0 0 0 0 0 0 0 0 0 0 0 0 1 1 1 2 3 1 0 0 1 1 1 0 0 0 0 0 0 0 0 0 0 0 0 0 0 0 0 0 0 0 0
0 0 0 0 0 0 0 0 0 0 0 0 0 0 0 0 0 0 1 1 1 2 2 1 0 0 0 1 1 0 0 0 0 0 0 0 0 0 0 0 0 0 0 0 0 0 0 0 0
0 0 0 0 0 0 0 0 0 0 0 0 0 0 0 0 0 0 0 0 0 1 1 0 0 0 0 0 0 0 0 0 0 0 0 0 0 0 0 0 0 0 0 0 0 0 0 0 0
0 0 0 0 0 0 0 0 0 0 0 0 0 0 0 0 0 0 0 0 0 0 0 0 0 0 0 0 0 0 0 0 0 0 0 0 0 0 0 0 0 0 0 0 0 0 0 0 0
Wind_Speed
9 10 6 2 2 1 7 7 8 7 8 8 9 9 12 12 9 7 2 4 6 7 9 9 9 9 9 9 9 8 9 9 9 10 10 10 11 11 10 10 9 9 8 8 8 9 8 9 9
10 6 4 3 1 3 7 8 9 8 6 5 8 11 12 12 10 7 3 3 6 8 9 9 8 8 8 8 8 9 9 9 9 9 10 10 10 10 10 9 9 9 9 9 9 9 8 8 8
12 8 4 1 5 7 7 7 7 7 5 6 8 11 9 7 8 5 3 4 7 8 9 8 8 8 8 8 8 9 9 9 9 9 9 9 10 9 9 9 9 9 9 9 9 9 8 8 8
6 3 2 3 10 10 7 6 5 7 7 7 8 9 10 9 7 6 5 6 8 8 9 8 8 8 8 8 8 9 9 9 9 9 9 9 9 9 9 9 9 9 9 10 9 9 9 8 8
4 2 2 6 9 8 7 7 6 8 9 11 11 11 9 8 8 8 5 6 7 7 8 8 8 8 8 8 8 8 8 8 9 8 8 8 9 9 9 9 9 9 9 10 9 9 9 9 8
3 2 2 6 9 7 7 7 7 9 9 9 10 10 9 7 7 6 5 5 5 6 7 8 8 8 8 8 8 8 8 8 9 8 7 7 8 8 9 9 9 9 10 10 9 9 9 9 8
2 2 4 7 7 6 7 7 7 7 8 7 8 9 8 7 6 5 5 5 4 4 5 6 7 7 8 8 8 7 7 8 7 7 7 7 8 8 9 10 9 10 10 9 9 9 9 8 7
1 1 5 6 6 6 6 6 6 7 7 6 6 7 6 7 7 5 5 5 4 4 4 4 4 6 6 6 7 7 6 6 6 5 5 6 7 7 8 9 9 9 9 9 9 9 8 8 6
1 1 5 6 5 5 6 5 6 6 8 9 10 10 9 9 7 5 4 4 4 5 4 4 4 4 3 5 7 6 6 5 4 4 5 4 3 4 5 8 9 9 9 8 7 7 7 6 4
1 4 7 6 6 5 5 5 5 6 7 8 9 10 9 7 6 5 5 5 4 4 3 3 4 4 4 4 4 2 3 3 2 1 2 2 3 4 6 7 8 8 7 6 4 4 3 2 1
5 6 7 8 7 6 6 5 6 6 5 5 7 9 8 7 5 5 5 5 4 4 3 4 4 4 4 3 3 2 1 1 2 2 3 2 3 3 4 3 3 3 4 2 2 1 1 2 2
7 7 6 7 6 5 5 5 6 6 5 6 8 8 7 6 5 4 4 4 5 5 4 3 4 4 4 3 2 2 1 2 2 2 3 3 2 2 2 2 2 2 2 2 2 2 4 4 4
7 6 6 5 4 4 4 5 5 5 6 7 8 7 6 5 5 5 4 5 5 5 4 5 5 4 4 3 2 3 2 2 3 2 2 3 2 2 3 2 2 2 2 3 2 3 4 4 5
6 5 5 4 4 4 4 4 4 5 6 6 7 6 6 4 4 4 4 4 5 5 5 4 4 4 4 3 2 3 2 2 2 2 2 4 3 2 3 3 3 3 2 2 2 4 4 3 4
6 5 5 4 4 4 2 2 3 6 6 6 6 6 6 5 3 4 4 4 4 5 6 5 4 5 5 4 3 2 2 2 3 3 3 3 3 3 4 3 3 3 3 3 4 4 3 3 3
6 5 3 4 4 3 2 1 4 6 6 6 5 6 5 5 4 4 4 4 5 5 6 5 4 4 4 3 3 2 3 3 3 2 3 3 4 4 4 3 2 2 3 3 3 3 3 3 3
5 4 3 4 4 3 3 1 5 5 5 5 5 6 6 6 5 5 4 5 4 5 5 5 4 4 4 3 2 2 3 3 2 2 2 3 3 3 3 2 2 3 3 2 3 3 3 3 2
2 1 1 2 4 3 2 2 5 6 5 5 6 6 6 6 6 5 5 5 4 4 5 5 4 4 4 3 2 2 3 2 2 2 2 2 2 3 3 1 2 3 2 2 2 3 2 1 1
4 3 2 1 2 3 3 3 5 7 5 4 5 6 6 6 7 7 6 6 4 4 5 4 4 4 4 2 2 2 2 2 2 1 2 2 2 2 2 2 2 2 2 2 3 2 2 1 2
4 4 3 1 2 3 4 4 4 7 6 4 4 5 7 7 7 7 6 6 5 4 4 4 4 4 4 2 1 1 1 1 2 2 2 2 2 2 1 2 2 2 2 2 2 2 1 1 1
5 5 3 2 3 6 6 5 5 7 7 6 4 3 4 6 7 8 7 6 5 5 4 4 4 4 4 3 2 2 2 1 2 2 1 2 2 2 2 2 2 2 2 1 1 2 2 0 1
4 4 5 5 6 4 4 3 3 7 8 7 5 3 4 5 5 6 6 6 6 5 4 4 4 4 3 4 2 2 1 1 1 1 1 1 1 2 2 1 2 1 1 1 1 2 1 1 1
3 3 6 8 8 7 6 4 2 6 6 6 6 5 4 5 5 6 5 6 5 5 4 4 4 3 3 3 2 1 1 1 1 1 2 1 1 1 1 1 1 1 1 1 1 1 1 1 0
4 6 8 9 6 7 6 4 2 3 5 6 6 6 6 6 6 6 6 5 5 5 4 3 4 3 2 2 3 2 1 1 1 1 2 1 1 0 0 1 1 1 1 1 1 1 1 0 1
5 5 4 3 4 3 2 2 2 6 5 5 5 5 6 6 6 6 6 6 5 5 4 3 4 4 3 2 2 2 2 1 2 1 2 1 1 1 1 1 1 1 1 1 1 1 1 1 1
5 6 4 4 4 2 1 1 5 8 6 5 4 5 6 6 6 6 7 6 5 5 4 3 3 3 3 2 2 2 2 1 1 1 1 1 1 1 2 1 1 1 1 1 1 1 0 0 1
5 5 6 6 8 5 2 3 6 5 5 5 4 4 5 6 6 7 7 7 6 5 4 3 4 3 3 3 2 1 2 2 2 1 1 1 1 1 2 2 2 1 1 1 1 1 0 0 1
7 6 4 4 4 4 2 2 4 5 4 3 3 4 4 5 6 7 7 6 6 5 5 4 3 3 2 2 2 1 1 2 2 2 2 2 2 1 2 1 2 2 1 1 1 1 1 1 1
6 6 5 4 5 4 3 2 4 5 4 2 2 3 3 5 5 6 6 6 6 5 5 4 3 3 2 2 2 3 2 2 2 2 2 2 2 2 2 2 2 2 1 1 1 1 1 1 1
5 7 6 4 5 5 4 1 4 5 4 2 2 3 3 4 4 5 6 5 5 5 5 4 4 3 2 2 2 3 3 2 2 2 2 2 2 2 2 2 1 1 1 2 2 2 1 1 1
Wind_Direction
260 244 240 255 248 95 62 61 60 51 54 50 49 61 66 52 50 80 79 50 72 86 95 80 61 56 53 54 53 53 55 58 60 61 59 59 59 58 62 64 65 67 68 68 65 64 62 63 61
271 255 251 240 249 88 70 63 62 59 62 62 60 63 70 64 71 89 79 53 72 79 82 76 67 61 58 57 58 58 60 62 63 63 61 60 61 63 65 66 68 70 70 68 67 66 64 64 62
266 259 261 281 37 61 73 70 77 78 71 70 70 59 55 62 71 88 94 82 79 81 86 84 76 69 63 61 64 65 63 64 62 62 59 59 63 66 66 68 71 74 76 73 70 69 71 70 67
263 255 246 66 66 64 75 85 89 85 70 69 77 75 66 54 76 95 91 84 87 92 96 97 88 79 72 69 67 66 65 65 65 64 61 62 64 66 67 72 77 78 82 80 77 75 71 72 69
246 256 109 85 78 72 69 75 79 77 72 69 76 89 87 75 81 85 74 72 85 96 102 109 104 93 83 77 73 70 67 67 67 68 67 65 68 68 69 75 81 83 86 85 81 78 70 64 60
272 245 107 91 86 79 73 74 75 82 84 86 90 94 89 89 84 85 80 71 74 93 111 116 118 111 100 88 81 78 77 74 72 74 73 73 77 75 73 76 81 84 85 86 85 81 74 66 60
305 21 88 97 91 81 67 64 71 76 71 67 88 94 101 100 100 103 94 84 80 86 101 123 138 128 117 106 99 95 93 89 87 85 86 85 85 84 83 83 88 88 87 87 86 84 82 78 71
308 35 97 88 87 80 72 68 65 75 79 75 73 93 108 115 119 112 103 95 83 78 82 97 116 129 136 130 118 115 113 114 111 106 107 108 105 98 95 93 92 92 92 92 91 91 90 84 76
263 81 82 84 88 92 92 88 81 79 88 80 75 86 104 121 123 120 105 97 85 74 68 77 89 89 100 119 127 140 142 148 144 144 155 147 132 117 105 100 104 103 100 99 98 103 104 97 81
81 78 81 86 95 100 98 93 100 93 86 89 92 99 115 126 123 119 113 111 106 91 86 86 82 85 76 78 100 113 114 135 149 131 140 146 110 93 103 110 114 118 117 114 120 125 119 116 87
80 82 80 81 83 91 93 86 84 89 88 97 111 121 122 128 130 122 116 113 102 95 80 87 82 84 82 79 83 69 75 86 70 61 74 77 94 111 115 130 127 128 131 120 118 122 92 85 82
93 90 90 94 94 93 87 81 74 73 81 96 108 118 129 137 131 126 117 115 115 101 83 82 87 86 85 82 82 88 68 61 59 35 64 60 51 69 87 93 102 103 95 79 60 63 63 57 61
101 103 100 103 112 107 99 92 90 89 100 108 114 120 120 121 124 124 117 114 114 113 101 75 72 76 81 76 68 83 72 68 72 33 56 78 65 64 78 85 89 85 82 78 59 61 59 51 49
112 114 122 131 125 127 117 111 116 113 123 125 127 131 129 121 125 130 113 112 115 116 105 96 88 85 80 76 65 78 84 78 75 50 41 74 75 70 73 71 79 80 81 76 73 69 65 62 59
143 152 152 161 164 146 129 110 121 132 143 140 140 139 133 134 143 129 121 119 110 114 105 89 80 78 77 75 68 80 75 68 59 43 32 52 75 71 69 56 64 76 79 71 66 58 54 68 70
196 186 168 168 177 157 196 167 121 137 154 151 155 149 147 150 153 136 134 118 110 106 100 94 82 77 69 60 55 71 83 71 61 47 32 34 58 70 75 70 61 78 78 75 76 72 57 52 51
217 213 169 166 180 169 192 157 139 159 172 166 168 163 160 161 155 139 129 116 112 109 107 103 89 89 82 67 55 47 79 81 76 59 40 29 53 72 77 73 69 69 73 70 74 73 71 65 58
246 251 195 170 171 189 206 189 163 177 191 180 175 172 168 163 156 146 132 122 113 107 108 107 102 88 85 64 56 50 52 65 66 66 55 38 42 63 80 91 81 77 80 78 79 89 78 85 67
290 300 290 209 173 225 239 224 183 174 188 190 184 176 168 163 156 147 141 135 128 121 116 116 115 101 91 75 69 70 62 74 66 60 57 53 48 58 75 80 79 86 94 103 98 93 71 67 82
274 271 271 229 216 250 255 244 205 172 182 188 193 177 166 162 155 146 144 138 138 127 127 120 110 107 108 106 95 100 94 94 87 61 50 42 47 34 68 95 95 102 99 91 91 93 69 25 72
265 278 284 292 271 255 252 251 205 170 170 169 191 184 156 153 155 153 153 147 143 138 135 131 127 121 118 110 81 68 56 52 65 65 49 31 41 40 35 67 91 112 124 127 124 115 112 359 325
277 324 312 292 276 263 241 263 203 169 169 170 175 179 160 146 142 144 149 148 149 143 141 136 128 122 119 117 107 109 111 108 109 120 113 83 50 43 28 66 95 101 116 137 170 142 151 158 288
308 313 285 275 274 274 255 248 205 155 165 169 166 165 158 143 138 135 136 138 139 134 133 130 131 120 117 129 137 129 100 129 109 110 112 106 74 45 21 70 92 110 124 135 114 88 89 135 161
291 276 266 256 259 260 244 230 177 154 156 160 160 162 158 144 132 131 125 121 120 121 130 139 133 122 132 149 147 146 148 140 120 129 139 156 144 109 40 85 91 121 125 130 121 122 102 75 36
246 269 276 248 224 241 208 205 124 106 97 104 136 149 148 141 141 141 135 131 125 132 145 149 141 139 153 171 159 166 169 166 164 163 166 169 155 170 184 106 76 69 75 94 122 142 162 168 161
254 257 279 302 304 320 279 163 99 100 95 97 109 128 139 143 148 146 142 140 141 144 149 156 155 154 168 182 184 183 166 168 159 187 159 165 159 169 152 133 125 109 115 101 104 118 214 176 160
272 266 282 292 294 285 228 122 119 120 116 113 118 125 141 143 149 147 145 149 153 156 155 166 162 168 177 187 189 199 174 156 175 199 189 178 168 160 149 162 161 143 120 114 115 118 335 55 77
263 294 293 276 299 295 271 166 141 135 117 124 126 133 144 149 148 145 149 155 159 159 161 163 164 173 175 186 183 183 201 194 192 195 207 193 173 163 159 177 160 153 162 154 138 140 139 97 98
228 246 260 279 279 291 309 39 84 117 115 106 116 124 127 134 142 146 151 156 157 157 162 164 171 175 175 189 187 182 201 220 201 202 200 188 172 171 169 186 170 158 171 163 149 165 153 148 176
256 265 265 269 284 286 289 78 108 115 110 96 79 107 121 130 137 143 146 151 156 160 165 169 173 174 179 193 201 187 184 217 216 199 196 192 181 182 179 165 168 172 185 175 174 180 181 195 193